Regional Weather Roundup
Issued by NWS

Home | Current Version | Previous Version | Text Only | Print | Product List | Glossary Off
Versions: 1 2 3 4 5 6 7 8 9 10 11 12 13 14 15 16 17 18 19 20 21 22 23 24 25 26 27 28

000
ASUS45 KCYS 270810
RWRWY

WYOMING REGIONAL WEATHER ROUNDUP
NATIONAL WEATHER SERVICE CHEYENNE WY
200 AM MDT TUE SEP 27 2016

NOTE:  "FAIR" INDICATES FEW OR NO CLOUDS BELOW 12,000 FEET
WITH NO SIGNIFICANT WEATHER AND/OR OBSTRUCTIONS TO VISIBILITY.

WYZ001-270900-
YELLOWSTONE NATIONAL PARK

CITY           SKY/WX    TMP DP  RH WIND       PRES   REMARKS
LK YELLOWSTONE   N/A     32  32 100 CALM      30.45F
W YELLOWSTONE  NOT AVBL

$$
WYZ002>013-054>058-071-098>099-270900-
NORTHERN WYOMING

CITY           SKY/WX    TMP DP  RH WIND       PRES   REMARKS
JACKSON        FAIR      39  39 100 CALM      30.38S
CODY           FAIR      48  45  89 CALM      30.24S
GREYBULL       FAIR      49  46  90 SE5       30.20F
WORLAND        FAIR      50  45  83 SE5       30.20F
SHERIDAN       FAIR      45  40  82 CALM      30.15S
BUFFALO        FAIR      55  32  41 W8        30.20F
GILLETTE       FAIR      54  44  69 SW5       30.17F
HULETT         FAIR      46  41  81 W6        30.19S
NEWCASTLE      FAIR      46  39  76 N7        30.21F

$$
WYZ014>020-022>026-101>103-270900-
CENTRAL WYOMING

CITY           SKY/WX    TMP DP  RH WIND       PRES   REMARKS
BIG PINEY      FAIR      41  35  79 N5        30.41S
PINEDALE       PTSUNNY   37  36  93 N5        30.42S WCI  34
DUBOIS         FAIR      43  36  75 W16       30.38F
LANDER         FAIR      50  35  56 W7        30.28F
RIVERTON       FAIR      49  45  86 NW9       30.29F
CASPER         FAIR      48  42  80 W9        30.27F
DOUGLAS        FAIR      41  38  89 CALM      30.26S

$$
WYZ021-027>030-104>119-270900-
SOUTHERN WYOMING

CITY           SKY/WX    TMP DP  RH WIND       PRES   REMARKS
EVANSTON       FAIR      47  34  60 SE5       30.38F
FORT BRIDGER   FAIR      51  37  57 W6        30.40S
ROCK SPRINGS   FAIR      46  39  76 S3        30.37S
DIXON          FAIR      46  36  66 E3        30.39S
RAWLINS        FAIR      37  33  85 CALM      30.36F
SARATOGA       FAIR      37  32  81 CALM      30.38F
LARAMIE        FAIR      39  35  86 S7        30.37F WCI  34
CHEYENNE       FAIR      44  37  76 W6        30.32F
TORRINGTON     FAIR      47  43  86 CALM      30.21F
PINE BLUFFS    FAIR      39  36  87 MISG      30.29F

$$




USA.gov is the U.S. government's official web portal to all federal, state and local government web resources and services.